Time,TemperatureF,DewpointF,PressureIn,WindDirection,WindDirectionDegrees,WindSpeedMPH,WindSpeedGustMPH,Humidity,HourlyPrecipIn,Conditions,Clouds,dailyrainin,SoftwareType,DateUTC
2013-02-04 00:00:00,35.0,22.1,30.01,West,270,1.0,8.0,59,0.00,,,0.00,Weather View 32 v70,2013-02-04 05:00:00,
2013-02-04 00:01:00,35.0,22.1,30.01,West,270,2.0,8.0,59,0.00,,,0.00,Weather View 32 v70,2013-02-04 05:01:00,
2013-02-04 00:06:00,34.0,21.6,30.01,West,270,2.0,7.0,60,0.00,,,0.00,Weather View 32 v70,2013-02-04 05:06:00,
2013-02-04 00:11:00,34.0,24.2,30.01,West,270,2.0,7.0,67,0.00,,,0.00,Weather View 32 v70,2013-02-04 05:11:00,
2013-02-04 00:16:00,34.0,24.2,30.01,West,270,2.0,7.0,67,0.00,,,0.00,Weather View 32 v70,2013-02-04 05:16:00,
2013-02-04 00:21:00,34.0,22.7,30.01,West,270,2.0,7.0,63,0.00,,,0.00,Weather View 32 v70,2013-02-04 05:21:00,
2013-02-04 00:26:00,34.0,22.7,30.01,West,270,4.0,7.0,63,0.00,,,0.00,Weather View 32 v70,2013-02-04 05:26:00,
2013-02-04 00:31:00,34.0,23.1,30.01,West,270,3.0,7.0,64,0.00,,,0.00,Weather View 32 v70,2013-02-04 05:31:00,
2013-02-04 00:36:00,34.0,23.1,30.01,West,270,2.0,7.0,64,0.00,,,0.00,Weather View 32 v70,2013-02-04 05:36:00,
2013-02-04 00:41:00,34.0,23.1,30.01,West,270,2.0,7.0,64,0.00,,,0.00,Weather View 32 v70,2013-02-04 05:41:00,
2013-02-04 00:46:00,34.0,23.5,30.01,West,270,2.0,7.0,65,0.00,,,0.00,Weather View 32 v70,2013-02-04 05:46:00,
2013-02-04 00:51:00,33.0,22.5,30.01,West,270,2.0,7.0,65,0.00,,,0.00,Weather View 32 v70,2013-02-04 05:51:00,
2013-02-04 00:56:00,33.0,22.9,30.01,West,270,1.0,7.0,66,0.00,,,0.00,Weather View 32 v70,2013-02-04 05:56:00,
2013-02-04 01:01:00,33.0,23.2,30.01,West,270,2.0,7.0,67,0.00,,,0.00,Weather View 32 v70,2013-02-04 06:01:00,
2013-02-04 01:06:00,33.0,23.2,30.01,West,270,3.0,7.0,67,0.00,,,0.00,Weather View 32 v70,2013-02-04 06:06:00,
2013-02-04 01:11:00,33.0,23.2,30.01,West,270,3.0,7.0,67,0.00,,,0.00,Weather View 32 v70,2013-02-04 06:11:00,
2013-02-04 01:16:00,33.0,23.6,30.01,West,270,3.0,7.0,68,0.00,,,0.00,Weather View 32 v70,2013-02-04 06:16:00,
2013-02-04 01:21:00,33.0,24.6,30.01,West,270,0.0,7.0,71,0.00,,,0.00,Weather View 32 v70,2013-02-04 06:21:00,
2013-02-04 01:26:00,32.0,24.0,30.01,West,270,2.0,6.0,72,0.00,,,0.00,Weather View 32 v70,2013-02-04 06:26:00,
2013-02-04 01:31:00,32.0,24.3,30.02,West,270,0.0,6.0,73,0.00,,,0.00,Weather View 32 v70,2013-02-04 06:31:00,
2013-02-04 01:36:00,32.0,24.6,30.02,West,270,0.0,6.0,74,0.00,,,0.00,Weather View 32 v70,2013-02-04 06:36:00,
2013-02-04 01:41:00,31.0,24.6,30.02,West,270,0.0,6.0,77,0.00,,,0.00,Weather View 32 v70,2013-02-04 06:41:00,
2013-02-04 01:46:00,30.0,25.2,30.02,West,270,0.0,6.0,82,0.00,,,0.00,Weather View 32 v70,2013-02-04 06:46:00,
2013-02-04 01:51:00,30.0,26.6,30.02,West,270,2.0,6.0,87,0.00,,,0.00,Weather View 32 v70,2013-02-04 06:51:00,
2013-02-04 01:56:00,30.0,27.7,30.02,West,270,0.0,6.0,91,0.00,,,0.00,Weather View 32 v70,2013-02-04 06:56:00,
2013-02-04 02:01:00,30.0,24.3,30.03,West,270,2.0,6.0,79,0.00,,,0.00,Weather View 32 v70,2013-02-04 07:01:00,
2013-02-04 02:06:00,31.0,24.3,30.03,West,270,1.0,6.0,76,0.00,,,0.00,Weather View 32 v70,2013-02-04 07:06:00,
2013-02-04 02:11:00,32.0,23.7,30.03,West,270,4.0,6.0,71,0.00,,,0.00,Weather View 32 v70,2013-02-04 07:11:00,
2013-02-04 02:16:00,32.0,23.3,30.03,West,270,0.0,6.0,70,0.00,,,0.00,Weather View 32 v70,2013-02-04 07:16:00,
2013-02-04 02:21:00,32.0,23.3,30.03,West,270,2.0,6.0,70,0.00,,,0.00,Weather View 32 v70,2013-02-04 07:21:00,
2013-02-04 02:26:00,32.0,23.0,30.03,West,270,4.0,6.0,69,0.00,,,0.00,Weather View 32 v70,2013-02-04 07:26:00,
2013-02-04 02:31:00,32.0,23.3,30.03,West,270,1.0,6.0,70,0.00,,,0.00,Weather View 32 v70,2013-02-04 07:31:00,
2013-02-04 02:36:00,32.0,23.3,30.03,West,270,2.0,6.0,70,0.00,,,0.00,Weather View 32 v70,2013-02-04 07:36:00,
2013-02-04 02:41:00,31.0,23.0,30.03,West,270,0.0,6.0,72,0.00,,,0.00,Weather View 32 v70,2013-02-04 07:41:00,
2013-02-04 02:46:00,31.0,24.9,30.03,West,270,1.0,6.0,78,0.00,,,0.00,Weather View 32 v70,2013-02-04 07:46:00,
2013-02-04 02:51:00,30.0,24.6,30.04,West,270,0.0,6.0,80,0.00,,,0.00,Weather View 32 v70,2013-02-04 07:51:00,
2013-02-04 02:57:00,30.0,26.3,30.04,West,270,4.0,6.0,86,0.00,,,0.00,Weather View 32 v70,2013-02-04 07:57:00,
2013-02-04 03:02:00,30.0,24.9,30.04,West,270,1.0,6.0,81,0.00,,,0.00,Weather View 32 v70,2013-02-04 08:02:00,
2013-02-04 03:07:00,31.0,24.0,30.04,West,270,1.0,6.0,75,0.00,,,0.00,Weather View 32 v70,2013-02-04 08:07:00,
2013-02-04 03:12:00,31.0,22.4,30.03,West,270,3.0,6.0,70,0.00,,,0.00,Weather View 32 v70,2013-02-04 08:12:00,
2013-02-04 03:17:00,31.0,22.4,30.03,West,270,6.0,6.0,70,0.00,,,0.00,Weather View 32 v70,2013-02-04 08:17:00,
2013-02-04 03:22:00,31.0,23.7,30.04,West,270,4.0,6.0,74,0.00,,,0.00,Weather View 32 v70,2013-02-04 08:22:00,
2013-02-04 03:27:00,31.0,24.0,30.04,West,270,4.0,7.0,75,0.00,,,0.00,Weather View 32 v70,2013-02-04 08:27:00,
2013-02-04 03:32:00,31.0,23.0,30.04,West,270,4.0,7.0,72,0.00,,,0.00,Weather View 32 v70,2013-02-04 08:32:00,
2013-02-04 03:37:00,31.0,22.7,30.04,West,270,4.0,7.0,71,0.00,,,0.00,Weather View 32 v70,2013-02-04 08:37:00,
2013-02-04 03:42:00,31.0,23.0,30.05,West,270,6.0,7.0,72,0.00,,,0.00,Weather View 32 v70,2013-02-04 08:42:00,
2013-02-04 03:47:00,31.0,22.7,30.05,West,270,3.0,7.0,71,0.00,,,0.00,Weather View 32 v70,2013-02-04 08:47:00,
2013-02-04 03:52:00,31.0,22.4,30.05,West,270,3.0,7.0,70,0.00,,,0.00,Weather View 32 v70,2013-02-04 08:52:00,
2013-02-04 03:57:00,31.0,21.7,30.05,West,270,2.0,7.0,68,0.00,,,0.00,Weather View 32 v70,2013-02-04 08:57:00,
2013-02-04 04:02:00,31.0,21.7,30.04,West,270,1.0,7.0,68,0.00,,,0.00,Weather View 32 v70,2013-02-04 09:02:00,
2013-02-04 04:07:00,31.0,21.7,30.04,West,270,2.0,7.0,68,0.00,,,0.00,Weather View 32 v70,2013-02-04 09:07:00,
2013-02-04 04:12:00,31.0,21.3,30.05,West,270,1.0,7.0,67,0.00,,,0.00,Weather View 32 v70,2013-02-04 09:12:00,
2013-02-04 04:17:00,31.0,21.3,30.05,West,270,1.0,7.0,67,0.00,,,0.00,Weather View 32 v70,2013-02-04 09:17:00,
2013-02-04 04:22:00,31.0,21.0,30.05,West,270,2.0,7.0,66,0.00,,,0.00,Weather View 32 v70,2013-02-04 09:22:00,
2013-02-04 04:27:00,31.0,21.0,30.05,West,270,0.0,7.0,66,0.00,,,0.00,Weather View 32 v70,2013-02-04 09:27:00,
2013-02-04 04:32:00,31.0,21.3,30.05,West,270,3.0,7.0,67,0.00,,,0.00,Weather View 32 v70,2013-02-04 09:32:00,
2013-02-04 04:37:00,31.0,21.0,30.05,West,270,3.0,7.0,66,0.00,,,0.00,Weather View 32 v70,2013-02-04 09:37:00,
2013-02-04 04:42:00,31.0,21.0,30.05,West,270,2.0,7.0,66,0.00,,,0.00,Weather View 32 v70,2013-02-04 09:42:00,
2013-02-04 04:47:00,30.0,20.0,30.05,West,270,1.0,7.0,66,0.00,,,0.00,Weather View 32 v70,2013-02-04 09:47:00,
2013-02-04 04:52:00,30.0,19.7,30.05,West,270,1.0,7.0,65,0.00,,,0.00,Weather View 32 v70,2013-02-04 09:52:00,
2013-02-04 04:57:00,30.0,19.7,30.05,West,270,2.0,7.0,65,0.00,,,0.00,Weather View 32 v70,2013-02-04 09:57:00,
2013-02-04 05:02:00,30.0,19.3,30.05,West,270,0.0,7.0,64,0.00,,,0.00,Weather View 32 v70,2013-02-04 10:02:00,
2013-02-04 05:07:00,30.0,19.7,30.05,West,270,6.0,7.0,65,0.00,,,0.00,Weather View 32 v70,2013-02-04 10:07:00,
2013-02-04 05:12:00,30.0,19.3,30.05,West,270,6.0,7.0,64,0.00,,,0.00,Weather View 32 v70,2013-02-04 10:12:00,
2013-02-04 05:17:00,30.0,19.7,30.05,West,270,2.0,7.0,65,0.00,,,0.00,Weather View 32 v70,2013-02-04 10:17:00,
2013-02-04 05:22:00,30.0,19.3,30.06,West,270,3.0,7.0,64,0.00,,,0.00,Weather View 32 v70,2013-02-04 10:22:00,
2013-02-04 05:27:00,30.0,20.0,30.06,West,270,5.0,7.0,66,0.00,,,0.00,Weather View 32 v70,2013-02-04 10:27:00,
2013-02-04 05:32:00,30.0,20.4,30.07,West,270,2.0,7.0,67,0.00,,,0.00,Weather View 32 v70,2013-02-04 10:32:00,
2013-02-04 05:37:00,30.0,20.0,30.07,West,270,6.0,7.0,66,0.00,,,0.00,Weather View 32 v70,2013-02-04 10:37:00,
2013-02-04 05:42:00,31.0,19.9,30.07,West,270,3.0,9.0,63,0.00,,,0.00,Weather View 32 v70,2013-02-04 10:42:00,
2013-02-04 05:47:00,31.0,20.2,30.07,West,270,2.0,9.0,64,0.00,,,0.00,Weather View 32 v70,2013-02-04 10:47:00,
2013-02-04 05:52:00,31.0,19.9,30.08,West,270,5.0,9.0,63,0.00,,,0.00,Weather View 32 v70,2013-02-04 10:52:00,
2013-02-04 05:57:00,31.0,19.5,30.08,West,270,4.0,9.0,62,0.00,,,0.00,Weather View 32 v70,2013-02-04 10:57:00,
2013-02-04 06:02:00,31.0,19.5,30.08,West,270,3.0,9.0,62,0.00,,,0.00,Weather View 32 v70,2013-02-04 11:02:00,
2013-02-04 06:07:00,31.0,19.9,30.08,West,270,2.0,9.0,63,0.00,,,0.00,Weather View 32 v70,2013-02-04 11:07:00,
2013-02-04 06:12:00,31.0,19.5,30.09,West,270,4.0,9.0,62,0.00,,,0.00,Weather View 32 v70,2013-02-04 11:12:00,
2013-02-04 06:17:00,31.0,19.1,30.09,West,270,2.0,9.0,61,0.00,,,0.00,Weather View 32 v70,2013-02-04 11:17:00,
2013-02-04 06:22:00,31.0,19.9,30.09,West,270,3.0,9.0,63,0.00,,,0.00,Weather View 32 v70,2013-02-04 11:22:00,
2013-02-04 06:27:00,30.0,19.7,30.09,West,270,0.0,9.0,65,0.00,,,0.00,Weather View 32 v70,2013-02-04 11:27:00,
2013-02-04 06:32:00,30.0,19.7,30.09,West,270,0.0,9.0,65,0.00,,,0.00,Weather View 32 v70,2013-02-04 11:32:00,
2013-02-04 06:37:00,30.0,18.6,30.09,West,270,2.0,9.0,62,0.00,,,0.00,Weather View 32 v70,2013-02-04 11:37:00,
2013-02-04 06:42:00,30.0,18.6,30.09,West,270,2.0,9.0,62,0.00,,,0.00,Weather View 32 v70,2013-02-04 11:42:00,
2013-02-04 06:47:00,30.0,18.6,30.09,West,270,0.0,9.0,62,0.00,,,0.00,Weather View 32 v70,2013-02-04 11:47:00,
2013-02-04 06:52:00,30.0,18.2,30.09,West,270,5.0,9.0,61,0.00,,,0.00,Weather View 32 v70,2013-02-04 11:52:00,
2013-02-04 06:57:00,31.0,19.1,30.09,West,270,0.0,9.0,61,0.00,,,0.00,Weather View 32 v70,2013-02-04 11:57:00,
2013-02-04 07:02:00,30.0,17.8,30.09,West,270,0.0,9.0,60,0.00,,,0.00,Weather View 32 v70,2013-02-04 12:02:00,
2013-02-04 07:07:00,31.0,19.1,30.10,West,270,0.0,8.0,61,0.00,,,0.00,Weather View 32 v70,2013-02-04 12:07:00,
2013-02-04 07:12:00,30.0,17.8,30.10,West,270,0.0,8.0,60,0.00,,,0.00,Weather View 32 v70,2013-02-04 12:12:00,
2013-02-04 07:17:00,30.0,18.2,30.11,West,270,0.0,6.0,61,0.00,,,0.00,Weather View 32 v70,2013-02-04 12:17:00,
2013-02-04 07:22:00,30.0,18.2,30.11,West,270,0.0,6.0,61,0.00,,,0.00,Weather View 32 v70,2013-02-04 12:22:00,
2013-02-04 07:27:00,30.0,18.2,30.11,West,270,0.0,6.0,61,0.00,,,0.00,Weather View 32 v70,2013-02-04 12:27:00,
2013-02-04 07:32:00,30.0,18.2,30.11,West,270,0.0,6.0,61,0.00,,,0.00,Weather View 32 v70,2013-02-04 12:32:00,
2013-02-04 07:37:00,30.0,18.2,30.11,West,270,0.0,6.0,61,0.00,,,0.00,Weather View 32 v70,2013-02-04 12:37:00,
2013-02-04 07:42:00,30.0,18.6,30.11,West,270,0.0,6.0,62,0.00,,,0.00,Weather View 32 v70,2013-02-04 12:42:00,
2013-02-04 07:47:00,31.0,19.5,30.11,West,270,0.0,6.0,62,0.00,,,0.00,Weather View 32 v70,2013-02-04 12:47:00,
2013-02-04 07:53:00,30.0,18.2,30.11,West,270,0.0,5.0,61,0.00,,,0.00,Weather View 32 v70,2013-02-04 12:53:00,
2013-02-04 07:58:00,31.0,18.7,30.12,West,270,4.0,6.0,60,0.00,,,0.00,Weather View 32 v70,2013-02-04 12:58:00,
2013-02-04 08:03:00,31.0,18.3,30.12,West,270,0.0,6.0,59,0.00,,,0.00,Weather View 32 v70,2013-02-04 13:03:00,
2013-02-04 08:08:00,31.0,18.3,30.13,West,270,0.0,6.0,59,0.00,,,0.00,Weather View 32 v70,2013-02-04 13:08:00,
2013-02-04 08:13:00,31.0,18.3,30.13,West,270,0.0,6.0,59,0.00,,,0.00,Weather View 32 v70,2013-02-04 13:13:00,
2013-02-04 08:18:00,31.0,18.3,30.13,West,270,0.0,6.0,59,0.00,,,0.00,Weather View 32 v70,2013-02-04 13:18:00,
2013-02-04 08:23:00,31.0,18.7,30.13,West,270,0.0,6.0,60,0.00,,,0.00,Weather View 32 v70,2013-02-04 13:23:00,
2013-02-04 08:28:00,32.0,19.3,30.13,West,270,0.0,7.0,59,0.00,,,0.00,Weather View 32 v70,2013-02-04 13:28:00,
2013-02-04 08:33:00,32.0,19.3,30.13,West,270,0.0,7.0,59,0.00,,,0.00,Weather View 32 v70,2013-02-04 13:33:00,
2013-02-04 08:38:00,32.0,18.9,30.12,West,270,0.0,7.0,58,0.00,,,0.00,Weather View 32 v70,2013-02-04 13:38:00,
2013-02-04 08:43:00,32.0,18.5,30.12,NW,315,0.0,9.0,57,0.00,,,0.00,Weather View 32 v70,2013-02-04 13:43:00,
2013-02-04 08:48:00,32.0,18.9,30.12,NW,315,4.0,9.0,58,0.00,,,0.00,Weather View 32 v70,2013-02-04 13:48:00,
2013-02-04 08:53:00,32.0,18.5,30.12,NW,315,0.0,10.0,57,0.00,,,0.00,Weather View 32 v70,2013-02-04 13:53:00,
2013-02-04 08:58:00,32.0,18.5,30.13,NW,315,7.0,10.0,57,0.00,,,0.00,Weather View 32 v70,2013-02-04 13:58:00,
2013-02-04 09:03:00,32.0,18.1,30.13,NW,315,6.0,10.0,56,0.00,,,0.00,Weather View 32 v70,2013-02-04 14:03:00,
2013-02-04 09:08:00,33.0,19.4,30.13,NW,315,4.0,10.0,57,0.00,,,0.00,Weather View 32 v70,2013-02-04 14:08:00,
2013-02-04 09:13:00,33.0,19.0,30.13,NW,315,0.0,10.0,56,0.00,,,0.00,Weather View 32 v70,2013-02-04 14:13:00,
2013-02-04 09:18:00,33.0,19.4,30.13,NW,315,0.0,10.0,57,0.00,,,0.00,Weather View 32 v70,2013-02-04 14:18:00,
2013-02-04 09:23:00,33.0,18.6,30.13,NW,315,0.0,10.0,55,0.00,,,0.00,Weather View 32 v70,2013-02-04 14:23:00,
2013-02-04 09:28:00,33.0,19.0,30.14,NW,315,0.0,10.0,56,0.00,,,0.00,Weather View 32 v70,2013-02-04 14:28:00,
2013-02-04 09:33:00,34.0,19.5,30.14,NW,315,0.0,10.0,55,0.00,,,0.00,Weather View 32 v70,2013-02-04 14:33:00,
2013-02-04 09:38:00,34.0,19.1,30.15,NW,315,0.0,10.0,54,0.00,,,0.00,Weather View 32 v70,2013-02-04 14:38:00,
2013-02-04 09:43:00,34.0,19.5,30.15,NW,315,0.0,10.0,55,0.00,,,0.00,Weather View 32 v70,2013-02-04 14:43:00,
2013-02-04 09:48:00,34.0,18.6,30.15,NW,315,3.0,10.0,53,0.00,,,0.00,Weather View 32 v70,2013-02-04 14:48:00,
2013-02-04 09:53:00,34.0,18.6,30.15,NW,315,0.0,9.0,53,0.00,,,0.00,Weather View 32 v70,2013-02-04 14:53:00,
2013-02-04 09:58:00,34.0,18.2,30.13,NW,315,6.0,9.0,52,0.00,,,0.00,Weather View 32 v70,2013-02-04 14:58:00,
2013-02-04 10:03:00,34.0,18.6,30.13,NW,315,5.0,8.0,53,0.00,,,0.00,Weather View 32 v70,2013-02-04 15:03:00,
2013-02-04 10:08:00,34.0,19.1,30.13,NW,315,0.0,7.0,54,0.00,,,0.00,Weather View 32 v70,2013-02-04 15:08:00,
2013-02-04 10:13:00,35.0,19.1,30.13,NW,315,3.0,7.0,52,0.00,,,0.00,Weather View 32 v70,2013-02-04 15:13:00,
2013-02-04 10:18:00,35.0,18.7,30.13,NW,315,4.0,7.0,51,0.00,,,0.00,Weather View 32 v70,2013-02-04 15:18:00,
2013-02-04 10:23:00,35.0,20.5,30.13,NW,315,0.0,7.0,55,0.00,,,0.00,Weather View 32 v70,2013-02-04 15:23:00,
2013-02-04 10:28:00,35.0,19.6,30.14,NW,315,0.0,7.0,53,0.00,,,0.00,Weather View 32 v70,2013-02-04 15:28:00,
2013-02-04 10:33:00,36.0,20.1,30.14,NW,315,0.0,7.0,52,0.00,,,0.00,Weather View 32 v70,2013-02-04 15:33:00,
2013-02-04 10:38:00,36.0,19.6,30.14,NW,315,0.0,7.0,51,0.00,,,0.00,Weather View 32 v70,2013-02-04 15:38:00,
2013-02-04 10:43:00,37.0,21.0,30.14,NW,315,0.0,7.0,52,0.00,,,0.00,Weather View 32 v70,2013-02-04 15:43:00,
2013-02-04 10:48:00,38.0,20.5,30.13,NW,315,0.0,7.0,49,0.00,,,0.00,Weather View 32 v70,2013-02-04 15:48:00,
2013-02-04 10:54:00,39.0,19.9,30.13,NW,315,0.0,7.0,46,0.00,,,0.00,Weather View 32 v70,2013-02-04 15:54:00,
2013-02-04 10:59:00,39.0,19.9,30.13,NW,315,0.0,7.0,46,0.00,,,0.00,Weather View 32 v70,2013-02-04 15:59:00,
2013-02-04 11:04:00,40.0,20.3,30.13,NNW,337,0.0,7.0,45,0.00,,,0.00,Weather View 32 v70,2013-02-04 16:04:00,
2013-02-04 11:09:00,40.0,20.9,30.13,NW,315,1.0,7.0,46,0.00,,,0.00,Weather View 32 v70,2013-02-04 16:09:00,
2013-02-04 11:14:00,40.0,21.9,30.13,NW,315,0.0,7.0,48,0.00,,,0.00,Weather View 32 v70,2013-02-04 16:14:00,
2013-02-04 11:19:00,39.0,20.5,30.13,WNW,292,2.0,6.0,47,0.00,,,0.00,Weather View 32 v70,2013-02-04 16:19:00,
2013-02-04 11:24:00,40.0,21.4,30.13,WNW,292,0.0,6.0,47,0.00,,,0.00,Weather View 32 v70,2013-02-04 16:24:00,
2013-02-04 11:29:00,41.0,20.2,30.12,WNW,292,0.0,6.0,43,0.00,,,0.00,Weather View 32 v70,2013-02-04 16:29:00,
2013-02-04 11:34:00,42.0,21.6,30.12,WNW,292,0.0,6.0,44,0.00,,,0.00,Weather View 32 v70,2013-02-04 16:34:00,
2013-02-04 11:39:00,42.0,21.6,30.11,SW,225,2.0,6.0,44,0.00,,,0.00,Weather View 32 v70,2013-02-04 16:39:00,
2013-02-04 11:44:00,41.0,20.7,30.11,SW,225,4.0,7.0,44,0.00,,,0.00,Weather View 32 v70,2013-02-04 16:44:00,
2013-02-04 11:49:00,41.0,21.3,30.11,SW,225,3.0,7.0,45,0.00,,,0.00,Weather View 32 v70,2013-02-04 16:49:00,
2013-02-04 11:54:00,41.0,21.3,30.11,SW,225,0.0,7.0,45,0.00,,,0.00,Weather View 32 v70,2013-02-04 16:54:00,
2013-02-04 11:59:00,42.0,21.6,30.09,SW,225,6.0,7.0,44,0.00,,,0.00,Weather View 32 v70,2013-02-04 16:59:00,
2013-02-04 12:04:00,42.0,21.6,30.09,SW,225,2.0,7.0,44,0.00,,,0.00,Weather View 32 v70,2013-02-04 17:04:00,
2013-02-04 12:09:00,43.0,22.0,30.08,WSW,247,1.0,7.0,43,0.00,,,0.00,Weather View 32 v70,2013-02-04 17:09:00,
2013-02-04 12:14:00,42.0,21.1,30.08,WSW,247,1.0,7.0,43,0.00,,,0.00,Weather View 32 v70,2013-02-04 17:14:00,
2013-02-04 12:19:00,42.0,20.5,30.07,SW,225,5.0,7.0,42,0.00,,,0.00,Weather View 32 v70,2013-02-04 17:19:00,
2013-02-04 12:24:00,43.0,22.5,30.07,SW,225,3.0,8.0,44,0.00,,,0.00,Weather View 32 v70,2013-02-04 17:24:00,
2013-02-04 12:29:00,43.0,21.4,30.06,SSW,202,0.0,8.0,42,0.00,,,0.00,Weather View 32 v70,2013-02-04 17:29:00,
2013-02-04 12:34:00,44.0,21.8,30.06,SW,225,6.0,8.0,41,0.00,,,0.00,Weather View 32 v70,2013-02-04 17:34:00,
2013-02-04 12:39:00,44.0,22.3,30.05,SW,225,0.0,8.0,42,0.00,,,0.00,Weather View 32 v70,2013-02-04 17:39:00,
2013-02-04 12:44:00,44.0,22.9,30.05,SW,225,0.0,8.0,43,0.00,,,0.00,Weather View 32 v70,2013-02-04 17:44:00,
2013-02-04 12:49:00,45.0,22.7,30.03,South,180,0.0,8.0,41,0.00,,,0.00,Weather View 32 v70,2013-02-04 17:49:00,
2013-02-04 12:54:00,45.0,22.1,30.03,SW,225,3.0,8.0,40,0.00,,,0.00,Weather View 32 v70,2013-02-04 17:54:00,
2013-02-04 12:59:00,45.0,22.1,30.04,SSW,202,1.0,9.0,40,0.00,,,0.00,Weather View 32 v70,2013-02-04 17:59:00,
2013-02-04 13:04:00,45.0,22.1,30.04,SSW,202,3.0,9.0,40,0.00,,,0.00,Weather View 32 v70,2013-02-04 18:04:00,
2013-02-04 13:09:00,44.0,21.2,30.05,SW,225,4.0,9.0,40,0.00,,,0.00,Weather View 32 v70,2013-02-04 18:09:00,
2013-02-04 13:14:00,44.0,21.8,30.05,SW,225,5.0,9.0,41,0.00,,,0.00,Weather View 32 v70,2013-02-04 18:14:00,
2013-02-04 13:19:00,44.0,22.9,30.05,SSW,202,2.0,9.0,43,0.00,,,0.00,Weather View 32 v70,2013-02-04 18:19:00,
2013-02-04 13:25:00,45.0,22.7,30.05,SSW,202,2.0,11.0,41,0.00,,,0.00,Weather View 32 v70,2013-02-04 18:25:00,
2013-02-04 13:30:00,46.0,22.4,30.04,SSW,202,2.0,11.0,39,0.00,,,0.00,Weather View 32 v70,2013-02-04 18:30:00,
2013-02-04 13:35:00,46.0,23.0,30.04,SW,225,4.0,12.0,40,0.00,,,0.00,Weather View 32 v70,2013-02-04 18:35:00,
2013-02-04 13:40:00,47.0,23.3,30.03,WSW,247,7.0,12.0,39,0.00,,,0.00,Weather View 32 v70,2013-02-04 18:40:00,
2013-02-04 13:45:00,46.0,23.6,30.03,WSW,247,7.0,12.0,41,0.00,,,0.00,Weather View 32 v70,2013-02-04 18:45:00,
2013-02-04 13:50:00,47.0,23.3,30.02,WSW,247,7.0,12.0,39,0.00,,,0.00,Weather View 32 v70,2013-02-04 18:50:00,
2013-02-04 13:55:00,47.0,23.9,30.02,SW,225,6.0,12.0,40,0.00,,,0.00,Weather View 32 v70,2013-02-04 18:55:00,
2013-02-04 14:00:00,48.0,24.2,30.01,SW,225,0.0,12.0,39,0.00,,,0.00,Weather View 32 v70,2013-02-04 19:00:00,
2013-02-04 14:05:00,47.0,22.7,30.01,SW,225,7.0,12.0,38,0.00,,,0.00,Weather View 32 v70,2013-02-04 19:05:00,
2013-02-04 14:10:00,48.0,24.2,30.01,SW,225,6.0,12.0,39,0.00,,,0.00,Weather View 32 v70,2013-02-04 19:10:00,
2013-02-04 14:15:00,48.0,24.8,30.01,West,270,7.0,12.0,40,0.00,,,0.00,Weather View 32 v70,2013-02-04 19:15:00,
2013-02-04 14:20:00,48.0,22.9,30.00,SW,225,3.0,13.0,37,0.00,,,0.00,Weather View 32 v70,2013-02-04 19:20:00,
2013-02-04 14:25:00,48.0,22.9,30.00,SSW,202,7.0,13.0,37,0.00,,,0.00,Weather View 32 v70,2013-02-04 19:25:00,
2013-02-04 14:30:00,48.0,23.6,30.00,South,180,3.0,13.0,38,0.00,,,0.00,Weather View 32 v70,2013-02-04 19:30:00,
2013-02-04 14:35:00,48.0,23.6,30.00,SW,225,7.0,13.0,38,0.00,,,0.00,Weather View 32 v70,2013-02-04 19:35:00,
2013-02-04 14:40:00,48.0,22.9,30.00,South,180,7.0,13.0,37,0.00,,,0.00,Weather View 32 v70,2013-02-04 19:40:00,
2013-02-04 14:45:00,48.0,22.3,30.00,SSW,202,8.0,13.0,36,0.00,,,0.00,Weather View 32 v70,2013-02-04 19:45:00,
2013-02-04 14:50:00,48.0,22.9,29.99,SW,225,5.0,13.0,37,0.00,,,0.00,Weather View 32 v70,2013-02-04 19:50:00,
2013-02-04 14:55:00,49.0,23.8,29.99,SSW,202,6.0,13.0,37,0.00,,,0.00,Weather View 32 v70,2013-02-04 19:55:00,
2013-02-04 15:00:00,49.0,23.2,29.99,South,180,6.0,13.0,36,0.00,,,0.00,Weather View 32 v70,2013-02-04 20:00:00,
2013-02-04 15:05:00,48.0,22.9,29.99,SSW,202,5.0,13.0,37,0.00,,,0.00,Weather View 32 v70,2013-02-04 20:05:00,
2013-02-04 15:10:00,48.0,22.9,29.99,SSW,202,6.0,13.0,37,0.00,,,0.00,Weather View 32 v70,2013-02-04 20:10:00,
2013-02-04 15:15:00,48.0,22.9,29.99,SSW,202,5.0,13.0,37,0.00,,,0.00,Weather View 32 v70,2013-02-04 20:15:00,
2013-02-04 15:20:00,48.0,22.9,29.99,SW,225,2.0,12.0,37,0.00,,,0.00,Weather View 32 v70,2013-02-04 20:20:00,
2013-02-04 15:25:00,48.0,24.2,29.99,SSW,202,5.0,12.0,39,0.00,,,0.00,Weather View 32 v70,2013-02-04 20:25:00,
2013-02-04 15:30:00,47.0,23.3,29.99,SW,225,6.0,12.0,39,0.00,,,0.00,Weather View 32 v70,2013-02-04 20:30:00,
2013-02-04 15:35:00,47.0,24.5,29.99,SW,225,2.0,12.0,41,0.00,,,0.00,Weather View 32 v70,2013-02-04 20:35:00,
2013-02-04 15:40:00,47.0,24.5,29.99,WSW,247,6.0,12.0,41,0.00,,,0.00,Weather View 32 v70,2013-02-04 20:40:00,
2013-02-04 15:45:00,47.0,24.5,29.99,SW,225,3.0,12.0,41,0.00,,,0.00,Weather View 32 v70,2013-02-04 20:45:00,
2013-02-04 15:50:00,47.0,23.9,29.99,SSW,202,6.0,12.0,40,0.00,,,0.00,Weather View 32 v70,2013-02-04 20:50:00,
2013-02-04 15:55:00,47.0,25.1,29.99,SW,225,5.0,12.0,42,0.00,,,0.00,Weather View 32 v70,2013-02-04 20:55:00,
2013-02-04 16:00:00,47.0,24.5,29.98,SW,225,7.0,12.0,41,0.00,,,0.00,Weather View 32 v70,2013-02-04 21:00:00,
2013-02-04 16:05:00,47.0,25.1,29.98,SSW,202,3.0,12.0,42,0.00,,,0.00,Weather View 32 v70,2013-02-04 21:05:00,
2013-02-04 16:10:00,47.0,24.5,29.97,SSW,202,6.0,12.0,41,0.00,,,0.00,Weather View 32 v70,2013-02-04 21:10:00,
2013-02-04 16:15:00,47.0,25.6,29.97,SSW,202,5.0,12.0,43,0.00,,,0.00,Weather View 32 v70,2013-02-04 21:15:00,
2013-02-04 16:20:00,47.0,26.2,29.97,SSW,202,6.0,12.0,44,0.00,,,0.00,Weather View 32 v70,2013-02-04 21:20:00,
2013-02-04 16:25:00,47.0,25.6,29.97,SW,225,6.0,12.0,43,0.00,,,0.00,Weather View 32 v70,2013-02-04 21:25:00,
2013-02-04 16:30:00,47.0,25.6,29.97,SW,225,3.0,12.0,43,0.00,,,0.00,Weather View 32 v70,2013-02-04 21:30:00,
2013-02-04 16:35:00,47.0,25.1,29.97,South,180,2.0,12.0,42,0.00,,,0.00,Weather View 32 v70,2013-02-04 21:35:00,
2013-02-04 16:40:00,47.0,25.6,29.97,SSW,202,6.0,12.0,43,0.00,,,0.00,Weather View 32 v70,2013-02-04 21:40:00,
2013-02-04 16:45:00,47.0,24.5,29.97,SE,135,3.0,11.0,41,0.00,,,0.00,Weather View 32 v70,2013-02-04 21:45:00,
2013-02-04 16:50:00,47.0,24.5,29.97,South,180,8.0,11.0,41,0.00,,,0.00,Weather View 32 v70,2013-02-04 21:50:00,
2013-02-04 16:55:00,47.0,24.5,29.97,South,180,2.0,11.0,41,0.00,,,0.00,Weather View 32 v70,2013-02-04 21:55:00,
2013-02-04 17:00:00,47.0,24.5,29.97,SSW,202,2.0,11.0,41,0.00,,,0.00,Weather View 32 v70,2013-02-04 22:00:00,
2013-02-04 17:05:00,47.0,25.1,29.97,South,180,3.0,11.0,42,0.00,,,0.00,Weather View 32 v70,2013-02-04 22:05:00,
2013-02-04 17:10:00,47.0,25.1,29.97,South,180,7.0,11.0,42,0.00,,,0.00,Weather View 32 v70,2013-02-04 22:10:00,
2013-02-04 17:15:00,46.0,24.7,29.97,South,180,6.0,11.0,43,0.00,,,0.00,Weather View 32 v70,2013-02-04 22:15:00,
2013-02-04 17:20:00,46.0,24.7,29.97,SSW,202,5.0,11.0,43,0.00,,,0.00,Weather View 32 v70,2013-02-04 22:20:00,
2013-02-04 17:25:00,46.0,24.7,29.97,South,180,4.0,11.0,43,0.00,,,0.00,Weather View 32 v70,2013-02-04 22:25:00,
2013-02-04 17:30:00,46.0,25.3,29.97,SSW,202,2.0,11.0,44,0.00,,,0.00,Weather View 32 v70,2013-02-04 22:30:00,
2013-02-04 17:35:00,46.0,25.3,29.97,South,180,6.0,11.0,44,0.00,,,0.00,Weather View 32 v70,2013-02-04 22:35:00,
2013-02-04 17:40:00,46.0,25.8,29.97,South,180,0.0,11.0,45,0.00,,,0.00,Weather View 32 v70,2013-02-04 22:40:00,
2013-02-04 17:45:00,46.0,25.3,29.97,SSW,202,4.0,11.0,44,0.00,,,0.00,Weather View 32 v70,2013-02-04 22:45:00,
2013-02-04 17:50:00,46.0,25.3,29.97,SSW,202,3.0,11.0,44,0.00,,,0.00,Weather View 32 v70,2013-02-04 22:50:00,
2013-02-04 17:55:00,45.0,24.9,29.97,South,180,4.0,11.0,45,0.00,,,0.00,Weather View 32 v70,2013-02-04 22:55:00,
2013-02-04 18:00:00,45.0,24.4,29.97,SSE,157,7.0,11.0,44,0.00,,,0.00,Weather View 32 v70,2013-02-04 23:00:00,
2013-02-04 18:05:00,45.0,24.4,29.97,South,180,4.0,11.0,44,0.00,,,0.00,Weather View 32 v70,2013-02-04 23:05:00,
2013-02-04 18:10:00,45.0,24.9,29.97,South,180,6.0,11.0,45,0.00,,,0.00,Weather View 32 v70,2013-02-04 23:10:00,
2013-02-04 18:15:00,45.0,24.9,29.97,South,180,3.0,10.0,45,0.00,,,0.00,Weather View 32 v70,2013-02-04 23:15:00,
2013-02-04 18:20:00,45.0,24.9,29.97,South,180,5.0,10.0,45,0.00,,,0.00,Weather View 32 v70,2013-02-04 23:20:00,
2013-02-04 18:25:00,45.0,25.4,29.97,South,180,7.0,10.0,46,0.00,,,0.00,Weather View 32 v70,2013-02-04 23:25:00,
2013-02-04 18:30:00,45.0,25.4,29.97,South,180,5.0,12.0,46,0.00,,,0.00,Weather View 32 v70,2013-02-04 23:30:00,
2013-02-04 18:35:00,45.0,25.4,29.97,South,180,2.0,12.0,46,0.00,,,0.00,Weather View 32 v70,2013-02-04 23:35:00,
2013-02-04 18:40:00,45.0,26.0,29.97,South,180,6.0,12.0,47,0.00,,,0.00,Weather View 32 v70,2013-02-04 23:40:00,
2013-02-04 18:45:00,44.0,25.5,29.97,South,180,4.0,12.0,48,0.00,,,0.00,Weather View 32 v70,2013-02-04 23:45:00,
2013-02-04 18:50:00,44.0,26.0,29.97,South,180,5.0,12.0,49,0.00,,,0.00,Weather View 32 v70,2013-02-04 23:50:00,
2013-02-04 18:55:00,44.0,26.0,29.97,SSW,202,6.0,12.0,49,0.00,,,0.00,Weather View 32 v70,2013-02-04 23:55:00,
2013-02-04 19:00:00,44.0,26.5,29.99,South,180,5.0,12.0,50,0.00,,,0.00,Weather View 32 v70,2013-02-05 00:00:00,
2013-02-04 19:05:00,44.0,26.5,29.99,South,180,5.0,12.0,50,0.00,,,0.00,Weather View 32 v70,2013-02-05 00:05:00,
2013-02-04 19:10:00,44.0,27.0,29.99,South,180,8.0,12.0,51,0.00,,,0.00,Weather View 32 v70,2013-02-05 00:10:00,
2013-02-04 19:15:00,44.0,27.0,29.99,South,180,6.0,12.0,51,0.00,,,0.00,Weather View 32 v70,2013-02-05 00:15:00,
2013-02-04 19:20:00,43.0,26.1,29.99,South,180,3.0,12.0,51,0.00,,,0.00,Weather View 32 v70,2013-02-05 00:20:00,
2013-02-04 19:25:00,43.0,26.6,29.99,SSE,157,2.0,12.0,52,0.00,,,0.00,Weather View 32 v70,2013-02-05 00:25:00,
2013-02-04 19:30:00,43.0,26.6,29.99,South,180,6.0,12.0,52,0.00,,,0.00,Weather View 32 v70,2013-02-05 00:30:00,
2013-02-04 19:35:00,43.0,27.0,29.99,South,180,6.0,12.0,53,0.00,,,0.00,Weather View 32 v70,2013-02-05 00:35:00,
2013-02-04 19:40:00,43.0,27.0,29.99,South,180,3.0,12.0,53,0.00,,,0.00,Weather View 32 v70,2013-02-05 00:40:00,
2013-02-04 19:45:00,42.0,26.1,29.99,South,180,4.0,11.0,53,0.00,,,0.00,Weather View 32 v70,2013-02-05 00:45:00,
2013-02-04 19:50:00,42.0,26.5,29.98,South,180,6.0,11.0,54,0.00,,,0.00,Weather View 32 v70,2013-02-05 00:50:00,
2013-02-04 19:56:00,42.0,26.5,29.98,South,180,4.0,11.0,54,0.00,,,0.00,Weather View 32 v70,2013-02-05 00:56:00,
2013-02-04 20:01:00,42.0,26.5,29.99,South,180,3.0,10.0,54,0.00,,,0.00,Weather View 32 v70,2013-02-05 01:01:00,
2013-02-04 20:06:00,42.0,26.5,29.99,South,180,3.0,10.0,54,0.00,,,0.00,Weather View 32 v70,2013-02-05 01:06:00,
2013-02-04 20:11:00,42.0,26.5,29.98,South,180,3.0,10.0,54,0.00,,,0.00,Weather View 32 v70,2013-02-05 01:11:00,
2013-02-04 20:16:00,42.0,26.5,29.98,South,180,4.0,10.0,54,0.00,,,0.00,Weather View 32 v70,2013-02-05 01:16:00,
2013-02-04 20:21:00,42.0,27.0,29.98,SSE,157,3.0,10.0,55,0.00,,,0.00,Weather View 32 v70,2013-02-05 01:21:00,
2013-02-04 20:26:00,42.0,27.0,29.98,South,180,4.0,10.0,55,0.00,,,0.00,Weather View 32 v70,2013-02-05 01:26:00,
2013-02-04 20:31:00,41.0,26.5,29.98,South,180,5.0,10.0,56,0.00,,,0.00,Weather View 32 v70,2013-02-05 01:31:00,
2013-02-04 20:36:00,41.0,26.5,29.98,South,180,6.0,10.0,56,0.00,,,0.00,Weather View 32 v70,2013-02-05 01:36:00,
2013-02-04 20:41:00,41.0,26.5,29.98,South,180,4.0,10.0,56,0.00,,,0.00,Weather View 32 v70,2013-02-05 01:41:00,
2013-02-04 20:46:00,41.0,26.9,29.98,South,180,3.0,10.0,57,0.00,,,0.00,Weather View 32 v70,2013-02-05 01:46:00,
2013-02-04 20:51:00,41.0,26.9,29.99,South,180,5.0,10.0,57,0.00,,,0.00,Weather View 32 v70,2013-02-05 01:51:00,
2013-02-04 20:56:00,41.0,26.9,29.99,South,180,6.0,10.0,57,0.00,,,0.00,Weather View 32 v70,2013-02-05 01:56:00,
2013-02-04 21:01:00,41.0,27.3,29.99,South,180,5.0,10.0,58,0.00,,,0.00,Weather View 32 v70,2013-02-05 02:01:00,
2013-02-04 21:06:00,41.0,27.3,29.99,South,180,4.0,9.0,58,0.00,,,0.00,Weather View 32 v70,2013-02-05 02:06:00,
2013-02-04 21:11:00,41.0,26.9,29.99,South,180,6.0,10.0,57,0.00,,,0.00,Weather View 32 v70,2013-02-05 02:11:00,
2013-02-04 21:16:00,41.0,27.3,29.99,South,180,5.0,10.0,58,0.00,,,0.00,Weather View 32 v70,2013-02-05 02:16:00,
2013-02-04 21:21:00,41.0,27.3,29.99,South,180,2.0,10.0,58,0.00,,,0.00,Weather View 32 v70,2013-02-05 02:21:00,
2013-02-04 21:26:00,41.0,27.8,29.99,South,180,6.0,10.0,59,0.00,,,0.00,Weather View 32 v70,2013-02-05 02:26:00,
2013-02-04 21:31:00,40.0,26.8,29.99,South,180,5.0,10.0,59,0.00,,,0.00,Weather View 32 v70,2013-02-05 02:31:00,
2013-02-04 21:36:00,40.0,26.8,29.99,South,180,4.0,10.0,59,0.00,,,0.00,Weather View 32 v70,2013-02-05 02:36:00,
2013-02-04 21:41:00,41.0,27.3,29.99,South,180,6.0,10.0,58,0.00,,,0.00,Weather View 32 v70,2013-02-05 02:41:00,
2013-02-04 21:46:00,41.0,27.3,29.99,South,180,5.0,10.0,58,0.00,,,0.00,Weather View 32 v70,2013-02-05 02:46:00,
2013-02-04 21:51:00,41.0,27.3,29.99,South,180,3.0,10.0,58,0.00,,,0.00,Weather View 32 v70,2013-02-05 02:51:00,
2013-02-04 21:56:00,41.0,26.9,29.99,South,180,6.0,10.0,57,0.00,,,0.00,Weather View 32 v70,2013-02-05 02:56:00,
2013-02-04 22:01:00,41.0,26.9,29.99,South,180,6.0,12.0,57,0.00,,,0.00,Weather View 32 v70,2013-02-05 03:01:00,
2013-02-04 22:06:00,41.0,26.9,29.99,South,180,6.0,12.0,57,0.00,,,0.00,Weather View 32 v70,2013-02-05 03:06:00,
2013-02-04 22:11:00,41.0,26.5,29.99,South,180,6.0,12.0,56,0.00,,,0.00,Weather View 32 v70,2013-02-05 03:11:00,
2013-02-04 22:16:00,41.0,26.9,29.99,South,180,7.0,12.0,57,0.00,,,0.00,Weather View 32 v70,2013-02-05 03:16:00,
2013-02-04 22:21:00,41.0,26.9,29.99,South,180,6.0,12.0,57,0.00,,,0.00,Weather View 32 v70,2013-02-05 03:21:00,
2013-02-04 22:26:00,41.0,26.9,29.99,SSW,202,6.0,12.0,57,0.00,,,0.00,Weather View 32 v70,2013-02-05 03:26:00,
2013-02-04 22:31:00,41.0,26.9,29.99,South,180,4.0,12.0,57,0.00,,,0.00,Weather View 32 v70,2013-02-05 03:31:00,
2013-02-04 22:36:00,41.0,27.3,29.99,South,180,6.0,12.0,58,0.00,,,0.00,Weather View 32 v70,2013-02-05 03:36:00,
2013-02-04 22:41:00,40.0,26.4,29.99,South,180,6.0,12.0,58,0.00,,,0.00,Weather View 32 v70,2013-02-05 03:41:00,
2013-02-04 22:46:00,40.0,26.4,29.99,South,180,5.0,12.0,58,0.00,,,0.00,Weather View 32 v70,2013-02-05 03:46:00,
2013-02-04 22:51:00,40.0,26.4,29.99,South,180,5.0,12.0,58,0.00,,,0.00,Weather View 32 v70,2013-02-05 03:51:00,
2013-02-04 22:56:00,40.0,26.8,29.99,South,180,6.0,12.0,59,0.00,,,0.00,Weather View 32 v70,2013-02-05 03:56:00,
2013-02-04 23:01:00,40.0,26.8,29.98,South,180,6.0,12.0,59,0.00,,,0.00,Weather View 32 v70,2013-02-05 04:01:00,
2013-02-04 23:06:00,40.0,26.8,29.98,SSW,202,4.0,12.0,59,0.00,,,0.00,Weather View 32 v70,2013-02-05 04:06:00,
2013-02-04 23:11:00,40.0,26.8,29.99,SSW,202,5.0,12.0,59,0.00,,,0.00,Weather View 32 v70,2013-02-05 04:11:00,
2013-02-04 23:16:00,40.0,27.2,29.99,South,180,6.0,12.0,60,0.00,,,0.00,Weather View 32 v70,2013-02-05 04:16:00,
2013-02-04 23:21:00,40.0,27.2,29.98,South,180,2.0,12.0,60,0.00,,,0.00,Weather View 32 v70,2013-02-05 04:21:00,
2013-02-04 23:26:00,40.0,27.2,29.98,SSW,202,5.0,12.0,60,0.00,,,0.00,Weather View 32 v70,2013-02-05 04:26:00,
2013-02-04 23:31:00,40.0,27.2,29.99,South,180,2.0,12.0,60,0.00,,,0.00,Weather View 32 v70,2013-02-05 04:31:00,
2013-02-04 23:36:00,40.0,27.2,29.99,South,180,4.0,12.0,60,0.00,,,0.00,Weather View 32 v70,2013-02-05 04:36:00,
2013-02-04 23:41:00,40.0,27.2,29.99,South,180,4.0,12.0,60,0.00,,,0.00,Weather View 32 v70,2013-02-05 04:41:00,
2013-02-04 23:46:00,40.0,27.2,29.99,SSW,202,2.0,12.0,60,0.00,,,0.00,Weather View 32 v70,2013-02-05 04:46:00,
2013-02-04 23:51:00,40.0,27.2,29.98,SSW,202,3.0,12.0,60,0.00,,,0.00,Weather View 32 v70,2013-02-05 04:51:00,
2013-02-04 23:56:00,40.0,27.2,29.98,SW,225,2.0,10.0,60,0.00,,,0.00,Weather View 32 v70,2013-02-05 04:56:00,